Regional Weather Roundup
Issued by NWS Jackson, KY

Home | Current Version | Previous Version | Text Only | Print | Product List | Glossary On
Versions: 1 2 3 4 5 6 7 8 9 10 11 12 13 14 15 16 17 18 19 20 21 22 23 24 25 26 27 28 29 30 31 32 33 34 35 36 37 38 39 40 41 42 43 44 45 46 47 48 49 50
000
ASUS43 KJKL 020719
RWRJKL

EAST KENTUCKY HOURLY WEATHER ROUNDUP
NATIONAL WEATHER SERVICE JACKSON KY
300 AM EDT TUE SEP 02 2014

NOTE: "FAIR" INDICATES FEW OR NO CLOUDS BELOW 12,000 FEET WITH
NO SIGNIFICANT WEATHER AND/OR OBSTRUCTIONS TO VISIBILITY.

* THESE REPORTS ARE NOT UNDER NWS QUALITY CONTROL AND MAY NOT
  REPORT WEATHER SUCH AS PRECIPITATION AND FOG.

KYZ079-080-083-085-087-088-110-112-115-119-120-020800
...EASTERN KENTUCKY...

CITY           SKY/WX    TMP DP  RH WIND       PRES   REMARKS
JACKSON        CLEAR     74  69  85 VRB3      30.06S
LONDON         CLEAR     71  67  87 CALM      30.07S
SOMERSET*      MOCLDY    72  70  94 CALM      30.06S
MONTICELLO*    CLEAR     70  69  96 CALM      30.07S
MIDDLESBORO*   CLEAR     69  69  98 CALM      30.09R
HARLAN APT*    MOSUNNY   70  70 100 MISG      30.10R
HAZARD APT*    SUNNY     73  70  88 SW3       30.07S
BLACK MTN*       N/A     66  66 100 SW6         N/A
PIKEVILLE APT* CLEAR     75  68  78 CALM      30.07S
BIG SANDY*     PTSUNNY   76  70  81 CALM      30.05S
MOREHEAD APT*  MOSUNNY   73  68  83 SW6       30.04R
ASHLAND*       CLEAR     70  66  88 CALM      29.98S THUNDER
$$

KYZ035-036-041-042-044-050-067-078-099-020800
...CENTRAL KENTUCKY...

CITY           SKY/WX    TMP DP  RH WIND       PRES   REMARKS
MT STERLING*   MOCLDY    72  68  88 SW6       30.03S
FLEMING/MASON* CLEAR     72  70  94 S6        30.01R
DANVILLE*      MOCLDY    72  68  88 CALM      30.05R
RICHMOND*      MOCLDY    75  66  73 S7        30.03S
LEXINGTON      MOCLDY    76  70  82 SW8       30.02R
FRANKFORT      MOCLDY    76  69  79 SW9       29.99R
$$

KYZ091>093-OHZ055-061-077-WVZ005-015-034-035-042-020800
...SOUTHERN OHIO/WEST VIRGINIA...

CITY           SKY/WX    TMP DP  RH WIND       PRES   REMARKS
COVINGTON      CLOUDY    75  71  87 S7        29.97S
COLUMBUS       MOCLDY    76  70  82 SW5       29.96S
DAYTON         MOCLDY    73  70  90 SW6       29.98R
WILMINGTON     PTCLDY    71  69  93 SW7       29.98R
HUNTINGTON     PTCLDY    72  69  90 S5        30.00S
CHARLESTON     PTCLDY    69  69 100 CALM      30.02S
BECKLEY        PTCLDY    71  64  78 SW5       30.13F
BLUEFIELD      PTCLDY    71  63  75 W6        30.16F
$$

VAZ002-007-008-TNZ017-027-036-066-071-020800
...SOUTHWEST VIRGINIA/EAST TENNESSEE...

CITY           SKY/WX    TMP DP  RH WIND       PRES   REMARKS
WISE*          PTCLDY    73  64  73 SW9       30.16F
JONESVILLE*      N/A     68  68 100 CALM      30.12S FOG
ABINGDON*      CLEAR     68  67  95 CALM      30.14S
BRISTOL        PTCLDY    68  65  90 CALM      30.10F
KNOXVILLE      CLEAR     73  69  87 S3        30.07S
OAK RIDGE      CLEAR     74  71  91 CALM      30.09S
CROSSVILLE     CLEAR     71  67  87 SW3       30.13S
NASHVILLE      CLEAR     73  69  87 S3        30.03S
$$

...KEY TO REMARKS...
VSB - VISIBILITY IN MILES
WCI - WIND CHILL INDEX
HX  - HEAT INDEX

$$



USA.gov is the U.S. government's official web portal to all federal, state and local government web resources and services.